New York, NY

11:02 PM EST on December 08, 2016 (GMT -0500)
Central Park

Weather History for KNYC - November, 2011

Change the Weather History Date:

Tuesday, November 29, 2011

  Actual Average Record
Temperature  
Mean Temperature 59 °F 43 °F  
Max Temperature 66 °F 49 °F 69 °F (1990)
Min Temperature 51 °F 38 °F 15 °F (1872)
Degree Days  
Heating Degree Days 6 22  
Month to date heating degree days 368 497  
Since 1 July heating degree days 645 810  
Cooling Degree Days 0 0  
Month to date cooling degree days 0 0  
Year to date cooling degree days 1331 1104  
Growing Degree Days 8 (Base 50)    
Moisture  
Dew Point 57 °F    
Average Humidity 87    
Maximum Humidity 96    
Minimum Humidity 78    
Precipitation  
Precipitation 0.47 in 0.14 in 2.20 in (2016)
Month to date precipitation 3.05 3.87  
Year to date precipitation 68.81 45.79  
Snow  
Snow 0.00 in 0.10 in 9.00 in (1882)
Month to date snowfall 0.0 0.3  
Since 1 July snowfall 2.9 0.3  
Snow Depth 0.00 in    
Sea Level Pressure  
Sea Level Pressure 29.89 in    
Wind  
Wind Speed 7 mph (SE)    
Max Wind Speed 17 mph    
Max Gust Speed 30 mph    
Visibility 8 miles    
Events Rain    
T = Trace of Precipitation, MM = Missing Value Source: NWS Daily Summary

Daily Weather History Graph

Daily Weather History Graph

Search for Another Location

Airport or City:

Trip Planner

Search our weather history database for the weather conditions in past years. The results will help you decide how hot, cold, wet, or windy it might be!

Date:

Astronomy

Nov. 29, 2011 Rise Set
Actual Time 6:58 AM EST 4:29 PM EST
Civil Twilight 6:28 AM EST 4:59 PM EST
Nautical Twilight 5:54 AM EST 5:33 PM EST
Astronomical Twilight 5:21 AM EST 6:06 PM EST
Moon 10:42 AM EST (11/29) 9:20 PM EST (11/29)
Length of Visible Light 10h 31m
Length of Day
9h 31m
Waxing Crescent, 24% of the Moon is Illuminated
Nov 29
Waxing Crescent
Dec 2
First Quarter
Dec 10
Full
Dec 17
Last Quarter
Dec 24
New

Hourly Weather History & Observations

Time (EST) Temp. Dew Point Humidity Pressure Visibility Wind Dir Wind Speed Gust Speed Precip Events Conditions
12:51 AM 57.0 °F 54.0 °F 89% 30.07 in 10.0 mi ENE 3.5 mph - N/A   Overcast
1:51 AM 59.0 °F 55.9 °F 90% 30.07 in 10.0 mi SE 4.6 mph - N/A   Overcast
2:51 AM 57.9 °F 55.0 °F 90% 30.05 in 10.0 mi Variable 5.8 mph - N/A   Overcast
3:51 AM 57.9 °F 55.0 °F 90% 30.03 in 10.0 mi ESE 5.8 mph - N/A   Overcast
3:58 AM 57.2 °F 55.4 °F 94% 30.05 in 10.0 mi East 5.8 mph - N/A   Overcast
4:38 AM 57.2 °F 55.4 °F 94% 30.05 in 10.0 mi Variable 4.6 mph - N/A   Overcast
4:51 AM 57.0 °F 55.0 °F 93% 30.02 in 10.0 mi East 4.6 mph - N/A   Overcast
5:51 AM 57.0 °F 55.0 °F 93% 30.02 in 9.0 mi East 6.9 mph - N/A   Overcast
6:39 AM 57.2 °F 55.4 °F 94% 30.03 in 10.0 mi East 6.9 mph - N/A   Overcast
6:51 AM 57.9 °F 55.9 °F 93% 30.01 in 10.0 mi ENE 6.9 mph - N/A   Overcast
7:12 AM 57.2 °F 55.4 °F 94% 30.03 in 9.0 mi ENE 5.8 mph - N/A   Overcast
7:25 AM 59.0 °F 55.4 °F 88% 30.03 in 9.0 mi ENE 4.6 mph - N/A   Overcast
7:51 AM 59.0 °F 55.9 °F 90% 30.00 in 10.0 mi East 4.6 mph - N/A   Overcast
8:00 AM 60.8 °F 57.2 °F 88% 30.03 in 10.0 mi SE 5.8 mph - N/A   Overcast
8:31 AM 60.8 °F 57.2 °F 88% 30.02 in 10.0 mi Calm Calm - N/A   Overcast
8:51 AM 62.1 °F 57.9 °F 86% 29.99 in 10.0 mi Variable 3.5 mph - N/A   Overcast
9:51 AM 62.1 °F 57.0 °F 84% 29.99 in 10.0 mi SSE 9.2 mph 19.6 mph N/A   Overcast
9:58 AM 62.6 °F 57.2 °F 82% 30.01 in 10.0 mi SSE 11.5 mph - N/A   Overcast
10:47 AM 60.8 °F 59.0 °F 94% 29.99 in 2.0 mi Variable 4.6 mph 16.1 mph 0.10 in Rain Light Rain
10:51 AM 61.0 °F 59.0 °F 93% 29.97 in 4.0 mi Variable 4.6 mph 16.1 mph 0.10 in Rain Light Rain
11:29 AM 60.8 °F 59.0 °F 94% 29.96 in 9.0 mi SE 10.4 mph 16.1 mph 0.00 in   Overcast
11:41 AM 62.6 °F 59.0 °F 88% 29.94 in 10.0 mi SE 9.2 mph - 0.00 in   Overcast
11:51 AM 63.0 °F 57.9 °F 84% 29.91 in 10.0 mi SSE 10.4 mph 16.1 mph 0.00 in   Overcast
12:51 PM 64.9 °F 57.9 °F 78% 29.87 in 10.0 mi SE 9.2 mph 18.4 mph N/A   Overcast
1:51 PM 64.9 °F 57.0 °F 75% 29.83 in 10.0 mi SSE 9.2 mph 18.4 mph N/A   Mostly Cloudy
2:51 PM 64.9 °F 57.9 °F 78% 29.81 in 10.0 mi SE 10.4 mph 16.1 mph N/A   Overcast
3:17 PM 62.6 °F 59.0 °F 88% 29.83 in 1.8 mi SSE 10.4 mph 25.3 mph 0.00 in Rain Light Rain
3:27 PM 60.8 °F 60.8 °F 100% 29.82 in 2.5 mi SSE 15.0 mph 24.2 mph 0.03 in Rain Light Rain
3:34 PM 60.8 °F 59.0 °F 94% 29.82 in 6.0 mi SSE 8.1 mph 24.2 mph 0.03 in   Overcast
3:48 PM 60.8 °F 59.0 °F 94% 29.82 in 1.8 mi SE 12.7 mph 23.0 mph 0.03 in Rain Rain
3:51 PM 61.0 °F 60.1 °F 97% 29.79 in 1.5 mi SE 9.2 mph 21.9 mph 0.04 in Rain Rain
4:06 PM 60.8 °F 60.8 °F 100% 29.80 in 2.5 mi Variable 5.8 mph - 0.02 in Rain Light Rain
4:17 PM 62.6 °F 60.8 °F 94% 29.80 in 1.0 mi East 10.4 mph 25.3 mph 0.10 in Rain Rain
4:25 PM 62.6 °F 60.8 °F 94% 29.80 in 3.0 mi SE 8.1 mph 25.3 mph 0.11 in Rain Light Rain
4:51 PM 62.1 °F 60.1 °F 93% 29.77 in 6.0 mi SE 11.5 mph 23.0 mph 0.12 in Rain Light Rain
5:51 PM 62.1 °F 60.1 °F 93% 29.74 in 9.0 mi Variable 6.9 mph 27.6 mph 0.06 in Rain Light Rain
6:51 PM 61.0 °F 60.1 °F 97% 29.74 in 5.0 mi SE 9.2 mph 21.9 mph 0.01 in   Overcast
7:23 PM 60.8 °F 59.0 °F 94% 29.76 in 5.0 mi SSE 8.1 mph - N/A   Overcast
7:38 PM 59.0 °F 59.0 °F 100% 29.73 in 2.0 mi Variable 4.6 mph - 0.01 in Rain Rain
7:51 PM 59.0 °F 59.0 °F 100% 29.72 in 3.0 mi SSE 8.1 mph 16.1 mph 0.03 in Rain Light Rain
8:12 PM 57.2 °F 55.4 °F 94% 29.74 in 10.0 mi SSW 10.4 mph 17.3 mph 0.00 in   Overcast
8:21 PM 57.2 °F 55.4 °F 94% 29.74 in 8.0 mi SSW 12.7 mph 23.0 mph N/A Rain Light Rain
8:51 PM 55.9 °F 53.1 °F 90% 29.72 in 10.0 mi SW 12.7 mph 24.2 mph 0.01 in   Overcast
9:51 PM 52.0 °F 50.0 °F 93% 29.70 in 5.0 mi Variable 5.8 mph - 0.03 in Rain Light Rain
10:51 PM 52.0 °F 50.0 °F 93% 29.67 in 8.0 mi SSE 5.8 mph - 0.06 in Rain Light Rain
11:20 PM 51.8 °F 48.2 °F 88% 29.69 in 10.0 mi South 9.2 mph 16.1 mph 0.01 in   Overcast
11:51 PM 52.0 °F 48.0 °F 86% 29.68 in 10.0 mi South 8.1 mph - 0.01 in   Overcast